Location: Caltech
(34.1382°N, 118.1253°W)
Time: 15:07:42
(UTC-07:00)

Saudisat 1A - Visible Passes

Search period start: 29 August 2014 00:00
Search period end: 08 September 2014 00:00
Orbit: 600 x 607 km, 64.6° (Epoch: 29 August)

Date Brightness Start Highest point End Pass type
(mag) Time Alt. Az. Time Alt. Az. Time Alt. Az.
03 Sep 10.9 06:00:59 10° N 06:04:02 18° NE 06:07:04 10° E visible
04 Sep 9.7 20:16:21 10° SSE 20:17:42 16° SE 20:17:42 16° SE visible
05 Sep 8.3 20:27:37 10° S 20:31:44 41° ESE 20:35:54 10° NE visible
05 Sep 10.7 22:08:27 10° W 22:11:29 18° NW 22:14:31 10° N visible
06 Sep 11.1 04:59:08 10° NNE 05:01:22 14° NE 05:03:36 10° ENE visible
06 Sep 7.9 20:39:36 10° SSW 20:44:00 88° ESE 20:48:25 10° NNE visible
07 Sep 10.5 05:10:22 10° N 05:13:59 24° NE 05:17:35 10° ESE visible
07 Sep 9.1 20:52:08 10° SW 20:56:21 45° WNW 21:00:36 10° NNE visible
